Location: Old Broadwell Mill Observatory
(33.8015°N, 85.8137°W)
Time: 08:18:27
(UTC-05:00)

Daily predictions for brighter satellites

Satellite Brightness Start Highest point End
(mag) Time Altitude Azimuth Time Altitude Azimuth Time Altitude Azimuth
SPOT 3 Rocket 3.5 18:53:32 10° SSE 18:58:40 77° ENE 19:03:49 10° N
OAO 2 Rocket 4.3 18:53:57 10° W 18:59:02 47° SSW 19:04:07 10° SE
DMSP B5D1-3 4.5 18:57:06 10° NNE 19:02:12 72° ESE 19:07:16 10° S
Lacrosse 5 2.1 19:02:43 10° NW 19:07:47 75° SW 19:12:49 10° SSE
Cosmos 1825 Rocket 3.6 19:05:18 10° N 19:09:40 58° E 19:14:02 10° SSE
Cosmos 1814 Rocket 3.9 19:09:42 10° S 19:14:52 76° ESE 19:20:00 10° NNE
Cosmos 1898 Rocket 3.5 19:10:43 10° N 19:15:51 63° ENE 19:20:57 10° SSE
Cosmos 371 Rocket 4.2 19:13:01 10° SSW 19:17:46 55° WNW 19:22:34 10° N
SJ-6B 3.7 19:18:02 10° SE 19:21:36 30° ENE 19:25:07 10° N
USA 234 4.0 19:17:33 10° SSE 19:23:55 55° SW 19:30:20 10° NW
SL-08 ROCKET BODY 4.4 19:18:14 10° S 19:23:57 60° E 19:29:47 10° NNE
Cosmos 990 Rocket 4.2 19:20:22 10° N 19:25:20 46° ENE 19:30:15 10° SE
Cosmos 2181 Rocket 3.9 19:21:35 10° N 19:27:46 70° E 19:33:50 10° SSE
USA 81 4.1 19:25:34 10° N 19:30:46 57° E 19:35:57 10° SSE
GPS 2-04 Rocket1 4.2 19:28:45 10° W 19:32:37 33° SSW 19:36:27 10° SE
Envisat 4.4 19:31:44 16° E 19:33:30 19° ENE 19:36:56 10° NNE
Cosmos 1943 Rocket 2.2 19:28:19 10° NNW 19:33:56 88° ENE 19:39:32 10° SSE
Geosat 3.9 19:29:28 10° SSE 19:34:29 80° ENE 19:39:31 10° NNW
Cosmos 2150 Rocket 4.1 19:31:53 10° N 19:37:12 63° ENE 19:42:33 10° SSE
Cosmos 2074 Rocket 4.0 19:34:35 10° S 19:40:38 58° E 19:46:42 10° NNE
Cosmos 389 Rocket 4.5 19:38:11 10° SW 19:41:22 32° WNW 19:44:33 10° NNW
Cosmos 1758 Rocket 3.8 19:37:15 10° N 19:41:45 78° W 19:46:13 10° S
Cosmos 1726 Rocket 4.4 19:39:36 10° SSW 19:43:53 53° W 19:48:08 10° N
H-2A R/B 2.5 19:43:28 10° SSE 19:47:09 76° ENE 19:50:53 10° N
OE (NEXTSAT) 4.3 19:49:46 10° WNW 19:53:18 79° SW 19:54:41 34° SE
ISS -1.9 19:51:23 10° S 19:52:33 17° SSE 19:52:33 17° SSE
Cosmos 841 Rocket 3.7 19:49:10 10° SSW 19:54:17 71° WNW 19:59:25 10° NNE
Meteor 2-5 Rocket 3.7 19:49:09 10° N 19:55:02 89° E 20:00:44 10° S
Meteor 1-22 Rocket 4.1 19:49:54 10° S 19:55:41 71° E 20:01:14 10° NNE
Cosmos 1937 Rocket 3.8 19:55:01 10° NNW 20:00:17 69° WSW 20:05:29 10° S
Cosmos 2298 Rocket 4.4 19:56:23 10° NNW 20:01:40 65° WSW 20:06:55 10° S
Cosmos 1766 3.1 19:57:47 10° S 20:01:43 77° E 20:05:38 10° N
USA 229 DEB 4.1 19:54:47 10° NW 20:01:59 72° WSW 20:09:17 10° SSE
USA 229 4.0 19:54:53 10° NW 20:02:05 73° WSW 20:09:23 10° SSE
OAO 3 Copernicus 4.3 19:58:20 10° W 20:03:24 83° N 20:05:38 34° ENE
COSMOS 2406 3.1 19:59:28 10° SSW 20:05:09 83° ESE 20:10:54 10° NNE
Resurs 01 Rocket 1.9 20:04:18 37° ESE 20:05:25 46° ENE 20:09:39 10° N
ATLAS CENTAUR R/B 3.1 19:53:56 10° NW 20:05:47 62° NE 20:07:51 35° ESE
Cosmos 304 Rocket 4.4 20:01:29 10° SSW 20:06:10 56° WNW 20:10:54 10° N
NOSS 3-1 (A) 4.3 19:59:05 10° NNW 20:06:37 51° NE 20:10:51 29° ESE
BREEZE-M DEB (TANK) 4.1 19:51:18 10° WSW 20:06:45 70° NW 20:10:18 18° NE
HJ-1C 3.8 20:05:22 14° S 20:08:07 62° W 20:11:27 10° NNW
Cosmos 482 Debris 3.6 20:05:36 10° NW 20:08:39 64° W 20:08:39 64° W
Cosmos 1707 4.3 20:06:55 10° NNW 20:10:34 37° W 20:14:11 10° SSW
FALCON 9 R/B 1.7 20:08:47 10° W 20:11:52 82° N 20:14:19 35° E
Cosmos 1656 Rocket 3.5 20:06:45 10° NNW 20:12:25 79° ENE 20:15:35 27° SSE
Centaur D AC-29 2.7 19:59:38 10° WSW 20:12:40 37° S 20:14:24 29° SE
Nadezhda 3 Rocket 4.4 20:06:51 10° N 20:12:44 40° E 20:14:03 36° ESE
Cosmos 2184 Rocket 4.2 20:09:49 10° SSW 20:16:05 74° W 20:22:26 10° N
GP-B 3.2 20:12:01 10° NNE 20:16:18 52° E 20:16:18 52° E
NOSS 3-1 (C) 4.1 20:08:37 10° NNW 20:16:28 75° ENE 20:21:37 27° SE
Cosmos 540 Rocket 3.4 20:13:38 10° SSW 20:18:44 87° WNW 20:23:52 10° NNE
Cosmos 1812 Rocket 3.4 20:17:18 10° S 20:21:43 75° E 20:26:11 10° N
Cosmos 1610 Rocket 4.5 20:17:28 10° S 20:23:49 88° E 20:30:14 10° N
BREEZE-M (TANK) 2.9 20:15:25 10° NW 20:25:54 87° NE 20:26:38 61° SE
Cosmos 1900 4.2 20:27:11 10° SSW 20:32:12 69° ESE 20:32:13 69° ESE
Milstar 3 Cent rocket 2.7 20:30:01 10° WSW 20:34:03 36° S 20:34:03 36° S
Cosmos 1544 4.3 20:31:26 10° SSW 20:34:50 40° W 20:38:16 10° N
Meteor 2-8 Rocket 4.3 20:28:55 10° N 20:35:04 89° WSW 20:38:41 26° S
In-Cosmos 22 4.3 20:29:58 10° N 20:35:41 80° W 20:39:03 26° S
Cosmos 1805 4.0 20:39:06 48° NNW 20:39:06 48° NNW 20:42:08 10° N
Spot 2 Rocket 3.4 20:38:58 61° S 20:39:54 86° W 20:44:57 10° NNW
CZ-2D R/B 4.4 20:42:37 37° WSW 20:43:08 40° W 20:46:45 10° NNW
GEOS 3 Rocket 4.1 20:54:26 11° NNE 20:59:29 62° NW 21:04:45 10° SW
Cosmos 962 Rocket 4.5 20:58:46 45° SSW 21:00:55 84° W 21:07:19 10° N
Cosmos 1125 Rocket 4.0 21:03:19 10° NNW 21:07:53 57° WNW 21:07:53 57° WNW
Envisat 3.9 21:11:57 43° WSW 21:12:09 43° W 21:16:58 10° NNW
ATLAS 2AS CENTAUR R/B 4.0 21:41:15 10° NNW 21:46:19 36° N 21:46:19 36° N
